Regional Weather Roundup
Issued by NWS Charleston, WV

Home | Current Version | Previous Version | Graphics & Text | Print | Product List | Glossary On
Versions: 1 2 3 4 5 6 7 8 9 10 11 12 13 14 15 16 17 18 19 20 21 22 23 24 25 26 27
000
ASUS41 KRLX 052110
RWRRLX
West Virginia Regional Weather Roundup
National Weather Service Charleston WV
500 PM EDT THU MAY 05 2016

Note: "fair" indicates few or no clouds below 12,000 feet with no
significant weather and/or obstructions to visibility.

WVZ003-052200-
Northern Panhandle of West Virginia

CITY           SKY/WX    TMP DP  RH WIND       PRES   REMARKS
WHEELING         N/A     56  48  74 N12       29.70S
$$

WVZ009-052200-
Northwest West Virginia

CITY           SKY/WX    TMP DP  RH WIND       PRES   REMARKS
PARKERSBURG    CLOUDY    59  48  67 NW16G22   29.73F
$$

WVZ006-052200-
Western West Virginia

CITY           SKY/WX    TMP DP  RH WIND       PRES   REMARKS
HUNTINGTON     CLOUDY    56  41  57 NW10      29.77S
$$

WVZ015-052200-
West Central West Virginia

CITY           SKY/WX    TMP DP  RH WIND       PRES   REMARKS
CHARLESTON     LGT RAIN  48  44  86 SW8       29.74F
$$

WVZ022-031-052200-
North Central West Virginia

CITY           SKY/WX    TMP DP  RH WIND       PRES   REMARKS
CLARKSBURG     TSTM      54  51  90 NW7       29.66S
MORGANTOWN     LGT RAIN  54  49  83 N7        29.68R
$$

WVZ025-035-042-045-052200-
Southern West Virginia

CITY           SKY/WX    TMP DP  RH WIND       PRES   REMARKS
BECKLEY        LGT RAIN  41  38  89 NW10      29.72S
LOGAN          NOT AVBL
BLUEFIELD      LGT RAIN  38  35  89 NW8       29.73R
LEWISBURG      CLOUDY    46  40  80 NW7       29.68S
$$

WVZ047-052200-
Northern Mountains of West Virginia

CITY           SKY/WX    TMP DP  RH WIND       PRES   REMARKS
ELKINS         PTSUNNY   54  46  74 NW7       29.67S
$$

WVZ052-052200-
Eastern Panhandle of West Virginia

CITY           SKY/WX    TMP DP  RH WIND       PRES   REMARKS
MARTINSBURG    CLOUDY    56  47  71 N8        29.64S
PETERSBURG     CLOUDY    57  49  76 SE6       29.65F
$$




USA.gov is the U.S. government's official web portal to all federal, state and local government web resources and services.